User: anonymous   Login
Location: Drocourt
(49.0571°N, 1.7669°E)
Time: 17:14:32
(UTC+00:00)
Language:

Transit 4A - Orbit

View from above orbital plane
View from above orbital plane
View from above satellite
View from above satellite

Ground track
Ground track

The orbit data is extracted from the following two-line orbital elements,

1 00116U 61015A   24113.91978602  .00000274  00000-0  26868-3 0  9990
2 00116  66.8122  11.9250 0068706 104.8898 255.9803 13.92025140187395
Epoch (UTC): 22 April 2024 22:04:29
Eccentricity: 0.0068706
inclination: 66.8122°
perigee height: 871 km
apogee height: 971 km
right ascension of ascending node: 11.9250°
argument of perigee: 104.8898°
revolutions per day: 13.92025140
mean anomaly at epoch: 255.9803°
orbit number at epoch: 18739

The dashed part of the orbit path shows where the satellite is in the earth's shadow,  

DLR